Location: Ryley
(53.2913°N, 112.4267°W)
Time: 00:48:18
(UTC+00:00)

X-37B - Visible Passes

Search period start: 09 December 2021 00:00
Search period end: 19 December 2021 00:00
Orbit: 329 x 342 km, 45.0° (Epoch: 06 December)

Date Brightness Start Highest point End Pass type
(mag) Time Alt. Az. Time Alt. Az. Time Alt. Az.
10 Dec 3.0 01:32:31 10° SSW 01:33:29 13° S 01:33:29 13° S visible
11 Dec 3.2 01:52:10 10° SW 01:53:02 14° SSW 01:53:02 14° SSW visible
12 Dec 3.0 00:37:59 10° SSW 00:39:23 13° SSE 00:40:47 10° SE visible
12 Dec 3.6 02:12:15 10° SW 02:12:34 11° SW 02:12:34 11° SW visible
13 Dec 2.8 00:57:36 10° SW 00:59:29 16° S 01:00:54 12° SE visible
14 Dec 2.7 01:17:42 10° SW 01:19:37 16° S 01:20:29 15° SSE visible
15 Dec 3.0 00:03:03 10° SW 00:04:55 16° S 00:06:48 10° SE visible
15 Dec 3.0 01:38:07 10° SW 01:39:44 14° SSW 01:40:08 14° S visible
16 Dec 3.0 00:23:08 10° SW 00:25:03 16° S 00:26:59 10° SE visible
17 Dec 3.2 00:43:34 10° SW 00:45:10 14° SSW 00:46:47 10° SSE visible
